[[[{"header":{"parameterUnit":"kt","parameterCategory":2,"dx":1,"dy":1,"la1":30.253999710083008,"la2":30.299108505249023,"lo1":-89.0895004272461,"lo2":-89.04439544677734,"nx":28,"ny":28,"refTime":"2022-09-30T21:00:00:Z","depth":0,"parameterNumber":1,"parameterNumberName":"U-component_of_WINDS"},"data":[0.1223,0.1196,0.1194,0.1163,0.1157,0.1135,0.1127,0.1116,0.1107,0.1082,0.1067,0.1062,0.1052,0.1034,0.1018,0.1016,0.101,0.1003,0.1002,0.1036,0.1041,0.1045,0.1051,0.1001,0.1001,0.0966,0.0966,0.0966,0.1251,0.1244,0.1227,0.1209,0.1194,0.12,0.1186,0.1174,0.1154,0.1143,0.1127,0.1105,0.1087,0.1079,0.1061,0.1049,0.1051,0.1044,0.1045,0.1043,0.108,0.1086,0.1043,0.1043,0.1043,0.1043,0.1043,0.1043,0.1302,0.1286,0.1274,0.1255,0.1245,0.1233,0.1217,0.1211,0.1194,0.1175,0.1175,0.1153,0.1141,0.1117,0.1109,0.1092,0.1098,0.109,0.1088,0.1086,0.1085,0.1137,0.1089,0.1089,0.1089,0.1089,0.1089,0,0.1339,0.1338,0.132,0.1303,0.1289,0.1275,0.1261,0.1251,0.1248,0.1234,0.1214,0.1201,0.1178,0.1158,0.114,0.1133,0.1137,0.1137,0.1131,0.1131,0.1133,0.1132,0.1192,0.1138,0.1138,0.1138,0.1139,0.1139,0.139,0.1371,0.1356,0.1344,0.1336,0.1317,0.1305,0.1303,0.1291,0.1274,0.126,0.124,0.1224,0.1191,0.1184,0.1166,0.1167,0.1147,0.1164,0.1165,0.1167,0.1168,0.1167,0.1143,0.1143,0.1142,0.1142,0,0.1419,0.1415,0.1384,0.1371,0.1367,0.1347,0.1336,0.1319,0.1315,0.1292,0.1286,0.1279,0.1258,0.1254,0.123,0.1228,0.1197,0.1199,0.1202,0.1202,0.1183,0.1185,0.1123,0.1115,0.1167,0.1166,0.1166,0,0.1461,0.1435,0.143,0.1413,0.1385,0.1384,0.1356,0.1349,0.1338,0.1319,0.1323,0.1306,0.1303,0.1285,0.1282,0.1256,0.1251,0.1248,0.1248,0.1248,0.1248,0.124,0.1242,0.1247,0.1247,0.1248,0.1248,0,0.1507,0.1474,0.1445,0.1437,0.1419,0.1406,0.1398,0.1384,0.1372,0.1356,0.1348,0.1329,0.1318,0.1304,0.1301,0.1313,0.1268,0.1284,0.1265,0.1265,0.1254,0.1255,0.1202,0.1248,0.1248,0.1248,0.1249,0,0.1539,0.1522,0.1481,0.1467,0.1458,0.1439,0.142,0.1402,0.1388,0.1385,0.1372,0.1373,0.1349,0.1365,0.1332,0.1349,0.1339,0.1333,0.1332,0.1329,0.1347,0.1317,0.1268,0.1262,0.1328,0.1328,0.1329,0,0.1593,0.155,0.1548,0.1508,0.1488,0.1493,0.1472,0.1459,0.1453,0.1434,0.1428,0.1407,0.1418,0.141,0.1395,0.1387,0.1365,0.139,0.1364,0.1363,0.1367,0.1322,0.1315,0.1279,0.1337,0.1336,0.1336,0,0.1634,0.1612,0.1605,0.1595,0.1576,0.1558,0.1534,0.1512,0.15,0.1484,0.1464,0.1434,0.1441,0.1428,0.1427,0.141,0.138,0.142,0.142,0.1413,0.134,0.1335,0.1329,0.1383,0.1382,0.1381,0.1342,0,0.1685,0.1662,0.1643,0.162,0.1605,0.1579,0.1573,0.1559,0.1559,0.1553,0.1523,0.1509,0.1486,0.1477,0.1477,0.1441,0.1446,0.1453,0.1468,0.1438,0.1425,0.142,0.1488,0.1488,0.1489,0.1489,0,0,0.1738,0.1704,0.1701,0.1677,0.1664,0.1669,0.1642,0.1631,0.1606,0.1597,0.1606,0.1561,0.1548,0.1512,0.1502,0.1493,0.1486,0.1496,0.1452,0.1448,0.1445,0.1431,0.1426,0.1489,0.149,0.149,0.149,0,0.1754,0.1742,0.1715,0.1703,0.1685,0.1679,0.1673,0.1655,0.1649,0.1618,0.1622,0.1603,0.1566,0.1553,0.1542,0.1501,0.1504,0.1494,0.1474,0.1456,0.1451,0.1447,0.1433,0.1428,0.1491,0.1491,0.1491,0,0.1793,0.178,0.1766,0.1737,0.1725,0.1702,0.1717,0.1692,0.1676,0.1681,0.165,0.1641,0.1623,0.1588,0.1573,0.1579,0.1521,0.1538,0.1535,0.1533,0.1515,0.151,0.1505,0.1568,0.1568,0.1568,0,0,0.1809,0.1787,0.1771,0.174,0.1732,0.1723,0.171,0.1708,0.1691,0.1684,0.1673,0.1656,0.1635,0.1621,0.16,0.1563,0.1559,0.1547,0.1544,0.1541,0.1537,0.1518,0.1513,0.1569,0.1569,0.157,0,0,0.1816,0.1796,0.1799,0.1762,0.1747,0.1729,0.171,0.1713,0.1693,0.1695,0.1691,0.1686,0.1654,0.1644,0.166,0.1605,0.162,0.1616,0.1612,0.1607,0.1604,0.1606,0.1672,0,0,0,0,0,0.1829,0.1799,0.1802,0.1794,0.1756,0.1727,0.1722,0.1718,0.1729,0.1714,0.1705,0.1709,0.1652,0.1666,0.1659,0.1641,0.1584,0.1581,0.1579,0.1566,0.1561,0.1557,0,0,0,0,0,0,0.1826,0.1817,0.1803,0.1783,0.1775,0.1728,0.1746,0.1744,0.173,0.1732,0.1711,0.1709,0.1704,0.167,0.1663,0.1646,0.1674,0.1583,0.1581,0.1579,0.1564,0.156,0.1557,0,0,0,0,0,0.1824,0.1817,0.1756,0.1784,0.1776,0.1763,0.1747,0.1745,0.1735,0.172,0.1717,0.1733,0.1704,0.1698,0.1666,0.1649,0.1678,0.1676,0.1582,0.158,0.1578,0.1562,0,0,0,0,0,0,0.1822,0.1815,0.1755,0.1752,0.1794,0.1766,0.1761,0.1747,0.1723,0.1721,0.1741,0.1742,0.1703,0.1699,0.1694,0.165,0.1682,0.168,0.1678,0.158,0.1579,0.1578,0,0,0,0,0,0,0.1819,0.1813,0.1754,0.1767,0.1766,0.1768,0.1764,0.1736,0.1723,0.1746,0.1747,0.1742,0.171,0.1699,0.1696,0.1652,0.1685,0.1682,0.1681,0.168,0.1579,0.1578,0,0,0,0,0,0,0.1816,0.1811,0.1768,0.1767,0.1766,0.1739,0.1743,0.1704,0.1735,0.1747,0.1738,0.1739,0.171,0.1706,0.1697,0.1654,0.1652,0.1685,0.1683,0.1682,0.1681,0,0,0,0,0,0,0,0.1814,0.1849,0.1769,0.1767,0.1766,0.173,0.1729,0.1729,0.1735,0.1736,0.1737,0.1738,0.1698,0.1695,0.1693,0.1656,0,0,0.1685,0.1684,0,0,0,0,0,0,0,0,0.1851,0.185,0.1769,0.1769,0.1768,0.173,0.1729,0.1729,0.1736,0.1736,0.1737,0.1738,0.1697,0.1695,0.1693,0,0,0,0,0,0,0,0,0,0,0,0,0,0,0,0.1769,0.1769,0,0.173,0.1729,0.1729,0.1736,0.1736,0.1737,0.1738,0.1697,0.1695,0.1693,0,0,0,0,0,0,0,0,0,0,0,0,0,0,0,0,0,0,0,0,0,0,0,0,0,0,0,0,0,0,0,0,0,0,0,0,0,0,0,0,0,0,0,0,0,0,0,0,0,0,0,0,0,0,0,0,0,0,0,0,0,0,0,0,0,0,0,0,0]}],[{"header":{"parameterUnit":"kt","parameterCategory":2,"dx":1,"dy":1,"la1":30.253999710083008,"la2":30.299108505249023,"lo1":-89.0895004272461,"lo2":-89.04439544677734,"nx":28,"ny":28,"refTime":"2022-09-30T21:00:00:Z","depth":0,"parameterNumber":2,"parameterNumberName":"V-component_of_WINDS"},"data":[-10.3735,-10.3917,-10.3926,-10.4136,-10.4179,-10.4321,-10.4374,-10.4443,-10.4498,-10.4665,-10.4761,-10.4783,-10.4836,-10.4949,-10.5049,-10.5055,-10.5096,-10.5156,-10.5152,-10.4884,-10.4847,-10.4811,-10.4769,-10.5166,-10.5167,-10.5428,-10.5431,-10.5432,-10.3538,-10.3584,-10.3699,-10.3814,-10.3911,-10.3859,-10.3944,-10.4027,-10.4154,-10.4223,-10.4319,-10.4464,-10.4578,-10.461,-10.4718,-10.4798,-10.4776,-10.4826,-10.4818,-10.4826,-10.4541,-10.4497,-10.4842,-10.4842,-10.4842,-10.4842,-10.4842,-10.4842,-10.3182,-10.3291,-10.3367,-10.349,-10.355,-10.3626,-10.3729,-10.3756,-10.3864,-10.3982,-10.3967,-10.4109,-10.4174,-10.4306,-10.435,-10.4457,-10.44,-10.4455,-10.4468,-10.4481,-10.4495,-10.4114,-10.4475,-10.4474,-10.4473,-10.4473,-10.4472,0,-10.2922,-10.2923,-10.3032,-10.3145,-10.3235,-10.3321,-10.34,-10.3464,-10.3458,-10.3547,-10.3675,-10.3748,-10.3892,-10.4008,-10.411,-10.4143,-10.409,-10.4086,-10.4123,-10.4131,-10.4127,-10.4129,-10.366,-10.4074,-10.4071,-10.4068,-10.4066,-10.4065,-10.2561,-10.2688,-10.2769,-10.2845,-10.289,-10.3012,-10.3085,-10.3071,-10.3148,-10.324,-10.3334,-10.3452,-10.3546,-10.3745,-10.3766,-10.3871,-10.3845,-10.4002,-10.3859,-10.3864,-10.3843,-10.3835,-10.3846,-10.4029,-10.4033,-10.4037,-10.404,0,-10.2356,-10.2367,-10.2565,-10.2631,-10.2651,-10.2783,-10.2837,-10.2943,-10.2955,-10.3101,-10.3133,-10.315,-10.3273,-10.327,-10.3407,-10.3401,-10.361,-10.3584,-10.3587,-10.3581,-10.3719,-10.3705,-10.4175,-10.4234,-10.3826,-10.383,-10.3833,0,-10.2049,-10.2216,-10.2222,-10.2336,-10.2519,-10.2501,-10.2681,-10.2709,-10.2767,-10.2882,-10.2825,-10.2932,-10.2911,-10.3017,-10.3008,-10.3178,-10.3205,-10.3208,-10.3203,-10.3212,-10.3211,-10.3246,-10.3226,-10.319,-10.3187,-10.3185,-10.3183,0,-10.1724,-10.1923,-10.2109,-10.2155,-10.224,-10.2326,-10.2364,-10.2428,-10.2498,-10.2588,-10.2632,-10.2737,-10.2793,-10.2873,-10.286,-10.2763,-10.3069,-10.2933,-10.3072,-10.3073,-10.3137,-10.3132,-10.3553,-10.318,-10.318,-10.3179,-10.3178,0,-10.1476,-10.1574,-10.1843,-10.1911,-10.1963,-10.2084,-10.2188,-10.2292,-10.2362,-10.2365,-10.2435,-10.2394,-10.2545,-10.241,-10.2616,-10.2493,-10.2551,-10.2568,-10.2578,-10.2588,-10.2435,-10.267,-10.3074,-10.3114,-10.2601,-10.2597,-10.2592,0,-10.11,-10.1375,-10.1361,-10.1616,-10.1741,-10.1669,-10.1803,-10.1868,-10.1883,-10.1988,-10.2002,-10.2121,-10.202,-10.2055,-10.2159,-10.2176,-10.2336,-10.2155,-10.2298,-10.2304,-10.228,-10.2653,-10.2713,-10.2987,-10.2531,-10.2537,-10.2542,0,-10.0809,-10.0913,-10.096,-10.101,-10.1097,-10.1201,-10.1355,-10.147,-10.1541,-10.162,-10.1745,-10.1913,-10.1842,-10.1902,-10.1878,-10.1986,-10.2227,-10.1894,-10.1895,-10.1952,-10.25,-10.2556,-10.2603,-10.2187,-10.2194,-10.22,-10.2493,0,-10.0428,-10.0566,-10.0693,-10.0808,-10.0888,-10.1047,-10.1047,-10.113,-10.1101,-10.1112,-10.1298,-10.1347,-10.1459,-10.1511,-10.1482,-10.1731,-10.1687,-10.161,-10.1474,-10.172,-10.1816,-10.1856,-10.1331,-10.1327,-10.1324,-10.1321,0,0,-10.0063,-10.0261,-10.024,-10.0391,-10.0456,-10.0378,-10.0547,-10.0601,-10.0712,-10.0757,-10.0683,-10.0925,-10.0967,-10.1191,-10.1268,-10.1314,-10.1356,-10.127,-10.1604,-10.1635,-10.1664,-10.1767,-10.1809,-10.1315,-10.1314,-10.1313,-10.1312,0,-9.9923,-9.9977,-10.0148,-10.0204,-10.0286,-10.0291,-10.0332,-10.0398,-10.0412,-10.0595,-10.0522,-10.0632,-10.0826,-10.088,-10.0932,-10.1245,-10.118,-10.1279,-10.1448,-10.157,-10.1606,-10.1638,-10.1746,-10.1786,-10.1303,-10.1304,-10.1304,0,-9.9633,-9.9685,-9.9768,-9.9917,-9.9969,-10.0099,-9.9959,-10.0102,-10.0197,-10.0096,-10.0278,-10.0304,-10.0375,-10.0588,-10.0683,-10.0617,-10.1021,-10.0893,-10.0914,-10.0923,-10.104,-10.1083,-10.1122,-10.0612,-10.0609,-10.0607,0,0,-9.9511,-9.9641,-9.9688,-9.9886,-9.9925,-9.9934,-10.0002,-9.998,-10.0049,-10.0076,-10.0108,-10.0175,-10.0286,-10.036,-10.0464,-10.07,-10.071,-10.0808,-10.084,-10.0867,-10.0891,-10.1015,-10.1058,-10.0598,-10.0598,-10.0598,0,0,-9.9451,-9.9516,-9.9476,-9.9706,-9.9777,-9.9833,-9.9952,-9.9902,-9.9997,-9.9977,-9.9942,-9.9958,-10.0156,-10.0184,-10.0065,-10.0415,-10.0281,-10.031,-10.0389,-10.043,-10.0463,-10.045,-9.9923,0,0,0,0,0,-9.9307,-9.9509,-9.9472,-9.951,-9.9695,-9.9855,-9.9878,-9.9856,-9.9762,-9.9857,-9.9876,-9.9803,-10.0112,-10.0006,-10.0042,-10.0174,-10.0482,-10.0503,-10.0522,-10.068,-10.0724,-10.076,0,0,0,0,0,0,-9.9322,-9.9369,-9.9466,-9.9532,-9.9573,-9.9848,-9.9684,-9.9683,-9.9752,-9.9736,-9.9802,-9.9805,-9.9786,-9.9986,-10.0019,-10.0144,-9.9912,-10.0491,-10.0508,-10.0524,-10.0695,-10.073,-10.0761,0,0,0,0,0,-9.9334,-9.9371,-9.9676,-9.9529,-9.9565,-9.9584,-9.9676,-9.9674,-9.9726,-9.9755,-9.9755,-9.9703,-9.979,-9.9816,-10.0005,-10.013,-9.9889,-9.9901,-10.0502,-10.0516,-10.0528,-10.0712,0,0,0,0,0,0,-9.9342,-9.9369,-9.9682,-9.9692,-9.9451,-9.9568,-9.9585,-9.9667,-9.974,-9.9743,-9.9653,-9.9639,-9.9796,-9.9815,-9.9835,-10.0127,-9.987,-9.9883,-9.989,-10.0512,-10.0523,-10.0533,0,0,0,0,0,0,-9.9348,-9.9378,-9.9687,-9.9591,-9.9589,-9.9553,-9.9569,-9.9725,-9.9741,-9.9633,-9.9624,-9.9646,-9.9763,-9.9815,-9.9831,-10.0075,-9.9856,-9.9868,-9.9876,-9.9881,-10.0521,-10.0529,0,0,0,0,0,0,-9.936,-9.9386,-9.9588,-9.9587,-9.9585,-9.9694,-9.969,-9.9879,-9.9664,-9.9631,-9.9643,-9.9634,-9.9766,-9.9781,-9.9828,-10.0066,-10.0073,-9.9856,-9.9864,-9.987,-9.9874,0,0,0,0,0,0,0,-9.937,-9.9206,-9.9624,-9.9584,-9.9582,-9.9784,-9.9787,-9.9789,-9.9662,-9.9654,-9.9646,-9.9638,-9.9787,-9.98,-9.9813,-10.0059,0,0,-9.9855,-9.9861,0,0,0,0,0,0,0,0,-9.9194,-9.9203,-9.9625,-9.9627,-9.9629,-9.9784,-9.9786,-9.9789,-9.966,-9.9654,-9.9647,-9.9641,-9.979,-9.9801,-9.9812,0,0,0,0,0,0,0,0,0,0,0,0,0,0,0,-9.9625,-9.9627,0,-9.9785,-9.9786,-9.9788,-9.9659,-9.9654,-9.9649,-9.9644,-9.9793,-9.9802,-9.9811,0,0,0,0,0,0,0,0,0,0,0,0,0,0,0,0,0,0,0,0,0,0,0,0,0,0,0,0,0,0,0,0,0,0,0,0,0,0,0,0,0,0,0,0,0,0,0,0,0,0,0,0,0,0,0,0,0,0,0,0,0,0,0,0,0,0,0,0,0]}]]]